Location: D�pe
(52.6057°N, 8.1808°E)
Time: 02:00:49
(UTC+00:00)

Cosmos 1908 - Pass Details

Date: 29 October 2020
Orbit: 512 x 529 km, 82.5° (Epoch: 23 November)

Event Time Altitude Azimuth Distance (km) Brightness Sun altitude
Rises 16:55:03 0° 205° (SSW) 2,636 7.4 -8.5°
Reaches altitude 10° 16:57:14 10° 211° (SSW) 1,756 6.5 -8.8°
Maximum altitude 17:00:57 46° 286° (WNW) 711 4.4 -9.4°
Drops below altitude 10° 17:04:44 10° 1° (N) 1,780 5.8 -10.0°
Sets 17:06:58 0° 7° (N) 2,677 6.7 -10.3°
